KC5CPO Weather Reports


Display with metric or nautical units.
time (UTC)temp
F
wind
direction
speed
MPH
gust
MPH
rain 1hr
in
rain 24hr
in
rain mn
in
humidity
%
barometer
mb
20260506073424 62 270 2.0 3.0 0.00 0.00 0.00 82 1002.4
20260506072921 62 270 3.0 4.0 0.00 0.00 0.00 82 1002.4
20260506072421 62 248 4.0 5.0 0.00 0.00 0.00 82 1002.4
20260506071921 62 270 5.0 7.0 0.00 0.00 0.00 81 1002.4
20260506071421 62 270 4.0 5.0 0.00 0.00 0.00 81 1002.4
20260506070922 62 270 2.0 2.0 0.00 0.00 0.00 82 1002.4
20260506070422 62 248 3.0 5.0 0.00 0.00 0.00 81 1002.4
20260506062421 63 270 6.0 8.0 0.00 0.00 0.00 80 1002.4
20260506061922 63 270 3.0 5.0 0.00 0.00 0.00 80 1002.4
20260506061422 63 270 5.0 6.0 0.00 0.00 0.00 80 1002.4
20260506060921 63 248 2.0 3.0 0.00 0.00 0.00 80 1002.4
20260506060424 64 248 5.0 7.0 0.00 0.00 0.00 80 1002.4
20260506050923 66 248 5.0 5.0 0.00 0.00 0.00 78 1002.4
20260506050422 67 248 5.0 7.0 0.00 0.00 0.00 78 1002.0
20260506044922 67 248 2.0 2.0 0.00 0.00 0.00 77 1002.0
20260506044421 67 225 7.0 10.0 0.00 0.00 0.00 76 1002.4
20260506043922 68 203 5.0 6.0 0.00 0.00 0.00 76 1002.4
20260506043422 68 225 3.0 5.0 0.00 0.00 0.00 75 1002.0
20260506042921 68 203 9.0 12.0 0.00 0.00 0.00 75 1002.7
20260506042423 68 248 7.0 7.0 0.00 0.00 0.00 75 1002.4
20260506041922 68 203 7.0 9.0 0.00 0.00 0.00 74 1002.4
20260506041423 68 270 4.0 6.0 0.00 0.00 0.00 73 1002.0
20260506040922 68 248 6.0 10.0 0.00 0.00 0.00 73 1002.4
20260506040422 69 203 3.0 5.0 0.00 0.00 0.00 73 1002.0
20260506035921 69 203 3.0 4.0 0.00 0.00 0.00 73 1001.7
20260506035422 69 248 3.0 4.0 0.00 0.00 0.00 73 1001.7
20260506034921 69 248 4.0 5.0 0.00 0.00 0.00 73 1001.7
20260506034421 69 203 7.0 8.0 0.00 0.00 0.00 73 1002.0
20260506033921 69 248 8.0 13.0 0.00 0.00 0.00 73 1001.7
20260506033422 70 180 4.0 5.0 0.00 0.00 0.00 73 1001.7
20260506032922 70 203 4.0 5.0 0.00 0.00 0.00 74 1001.4
20260506032422 70 270 3.0 4.0 0.00 0.00 0.00 73 1001.0
20260506031923 70 203 3.0 3.0 0.00 0.00 0.00 73 1001.0
20260506031423 71 203 2.0 3.0 0.00 0.00 0.00 73 1001.0
20260506030921 71 248 2.0 3.0 0.00 0.00 0.00 72 1001.0
20260506030421 71 270 3.0 4.0 0.00 0.00 0.00 71 1000.7
20260506025922 72 270 3.0 4.0 0.00 0.00 0.00 71 1001.0
20260506025421 72 270 5.0 5.0 0.00 0.00 0.00 71 1001.0
20260506024922 72 248 2.0 3.0 0.00 0.00 0.00 71 1001.4
20260506024421 73 225 5.0 9.0 0.00 0.00 0.00 70 1000.7
20260506023922 73 203 3.0 5.0 0.00 0.00 0.00 70 1000.7
20260506023422 73 270 1.0 2.0 0.00 0.00 0.00 70 1000.7
20260506022921 74 270 3.0 4.0 0.00 0.00 0.00 69 1000.3
20260506022422 74 203 2.0 2.0 0.00 0.00 0.00 69 1000.3
20260506021922 74 270 7.0 10.0 0.00 0.00 0.00 68 1000.3
20260506021423 75 248 4.0 5.0 0.00 0.00 0.00 68 1000.0
20260506020922 75 248 5.0 6.0 0.00 0.00 0.00 68 1000.0
20260506020423 75 270 5.0 7.0 0.00 0.00 0.00 67 999.7
20260506015922 76 270 3.0 4.0 0.00 0.00 0.00 66 999.7
20260506015422 77 248 6.0 7.0 0.00 0.00 0.00 65 999.7
20260506014922 77 270 3.0 4.0 0.00 0.00 0.00 66 999.3
20260506014422 77 248 4.0 5.0 0.00 0.00 0.00 65 999.3
20260506013922 77 248 4.0 7.0 0.00 0.00 0.00 66 999.0
20260506013421 77 248 3.0 5.0 0.00 0.00 0.00 65 999.0
20260506012923 78 248 4.0 5.0 0.00 0.00 0.00 64 999.3
20260506012421 78 180 1.0 1.0 0.00 0.00 0.00 64 999.0
20260506011921 78 225 5.0 7.0 0.00 0.00 0.00 63 998.6
20260506011421 78 203 3.0 4.0 0.00 0.00 0.00 63 998.6
20260506010923 79 248 2.0 5.0 0.00 0.00 0.00 63 999.3
20260506010422 79 225 2.0 2.0 0.00 0.00 0.00 62 999.0
20260506005921 79 248 3.0 4.0 0.00 0.00 0.00 62 998.6
20260506005421 79 248 2.0 3.0 0.00 0.00 0.00 62 998.6
20260506004922 79 248 1.0 2.0 0.00 0.00 0.00 62 998.3
20260506004422 79 248 4.0 9.0 0.00 0.00 0.00 61 998.3
20260506003922 80 248 5.0 7.0 0.00 0.00 0.00 61 998.3
20260506003421 80 248 2.0 2.0 0.00 0.00 0.00 62 998.6
20260506002922 80 248 3.0 3.0 0.00 0.00 0.00 63 998.3
20260506002421 80 248 4.0 7.0 0.00 0.00 0.00 63 998.3
20260506001921 81 248 0.0 1.0 0.00 0.00 0.00 63 998.6
20260506001422 82 248 6.0 10.0 0.00 0.00 0.00 62 998.6
20260506000921 83 225 3.0 4.0 0.00 0.00 0.00 72 998.3
20260506000423 83 248 3.0 3.0 0.00 0.00 0.00 75 998.3
20260505235921 84 248 3.0 5.0 0.00 0.00 0.00 74 998.0
20260505235421 84 225 5.0 7.0 0.00 0.00 0.00 73 998.0
20260505234921 84 180 3.0 5.0 0.00 0.00 0.00 73 997.6
20260505234422 84 225 1.0 2.0 0.00 0.00 0.00 73 997.6
20260505233921 85 248 2.0 4.0 0.00 0.00 0.00 73 997.6
20260505233421 85 203 4.0 5.0 0.00 0.00 0.00 72 997.6
20260505232922 85 248 1.0 2.0 0.00 0.00 0.00 72 998.0
20260505232421 86 180 3.0 3.0 0.00 0.00 0.00 71 998.0
20260505231921 87 180 5.0 7.0 0.00 0.00 0.00 68 997.6
20260505231422 88 225 4.0 5.0 0.00 0.00 0.00 66 997.6
20260505230921 89 248 1.0 2.0 0.00 0.00 0.00 65 997.3
20260505230422 90 225 1.0 2.0 0.00 0.00 0.00 64 997.6
20260505225921 91 225 3.0 4.0 0.00 0.00 0.00 62 997.6
20260505225423 91 203 3.0 5.0 0.00 0.00 0.00 62 997.6
20260505224924 92 203 2.0 2.0 0.00 0.00 0.00 58 997.6
20260505224421 92 180 2.0 3.0 0.00 0.00 0.00 55 997.3
20260505223921 92 225 1.0 2.0 0.00 0.00 0.00 54 997.6
20260505223421 92 180 1.0 2.0 0.00 0.00 0.00 55 997.6
20260505222921 93 180 2.0 3.0 0.00 0.00 0.00 53 997.3
20260505222421 93 203 3.0 4.0 0.00 0.00 0.00 53 997.3
20260505221922 93 225 2.0 3.0 0.00 0.00 0.00 54 997.3
20260505221421 92 180 1.0 2.0 0.00 0.00 0.00 55 997.3
20260505220921 92 203 3.0 3.0 0.00 0.00 0.00 57 997.3
20260505220422 93 248 2.0 3.0 0.00 0.00 0.00 53 997.3
20260505215922 93 180 6.0 7.0 0.00 0.00 0.00 51 997.0
20260505215423 93 248 3.0 5.0 0.00 0.00 0.00 52 997.3
20260505214921 93 203 2.0 3.0 0.00 0.00 0.00 50 997.3
20260505214421 93 248 2.0 2.0 0.00 0.00 0.00 52 997.3
20260505213921 94 180 3.0 4.0 0.00 0.00 0.00 49 997.3
20260505213421 95 180 1.0 2.0 0.00 0.00 0.00 49 997.3
20260505212921 94 203 2.0 2.0 0.00 0.00 0.00 50 997.3
20260505212421 93 225 3.0 4.0 0.00 0.00 0.00 52 997.3
20260505211921 93 248 2.0 4.0 0.00 0.00 0.00 51 997.3
20260505211421 94 180 3.0 4.0 0.00 0.00 0.00 52 997.6
20260505210922 95 248 3.0 5.0 0.00 0.00 0.00 51 997.6
20260505210421 95 203 4.0 5.0 0.00 0.00 0.00 50 997.6
20260505205921 94 203 4.0 5.0 0.00 0.00 0.00 50 997.6
20260505205422 95 180 6.0 7.0 0.00 0.00 0.00 49 998.0
20260505204921 94 203 1.0 2.0 0.00 0.00 0.00 51 998.0
20260505204421 93 225 5.0 8.0 0.00 0.00 0.00 51 998.0
20260505203923 93 225 2.0 4.0 0.00 0.00 0.00 50 997.6
20260505203422 93 180 4.0 7.0 0.00 0.00 0.00 50 997.6
20260505202923 94 180 5.0 7.0 0.00 0.00 0.00 50 998.0
20260505202422 93 203 5.0 6.0 0.00 0.00 0.00 52 998.0
20260505201921 92 248 3.0 4.0 0.00 0.00 0.00 51 998.3
20260505201421 92 248 4.0 6.0 0.00 0.00 0.00 54 998.0
20260505200922 91 203 4.0 6.0 0.00 0.00 0.00 54 998.0
20260505200422 92 203 5.0 8.0 0.00 0.00 0.00 52 998.3
20260505195921 91 203 4.0 5.0 0.00 0.00 0.00 54 998.3
20260505195425 90 203 3.0 5.0 0.00 0.00 0.00 56 998.3
20260505194921 90 203 4.0 5.0 0.00 0.00 0.00 56 998.3
20260505194422 90 225 4.0 6.0 0.00 0.00 0.00 58 998.0
20260505193921 89 203 8.0 10.0 0.00 0.00 0.00 61 998.3
20260505193422 89 203 4.0 5.0 0.00 0.00 0.00 58 998.3
20260505192921 89 225 3.0 4.0 0.00 0.00 0.00 59 998.6
20260505192422 89 248 3.0 6.0 0.00 0.00 0.00 60 998.3
20260505191922 89 180 3.0 5.0 0.00 0.00 0.00 59 998.6
20260505191422 89 180 3.0 3.0 0.00 0.00 0.00 62 998.6
20260505190921 89 203 4.0 5.0 0.00 0.00 0.00 59 998.6
20260505190422 88 180 5.0 8.0 0.00 0.00 0.00 61 998.6
20260505185922 88 225 5.0 8.0 0.00 0.00 0.00 60 998.6
20260505185422 87 203 3.0 5.0 0.00 0.00 0.00 62 999.0
20260505184921 88 203 8.0 10.0 0.00 0.00 0.00 63 998.6
20260505184421 88 225 2.0 3.0 0.00 0.00 0.00 65 998.6
20260505183921 87 180 2.0 5.0 0.00 0.00 0.00 65 998.6
20260505183422 86 203 3.0 5.0 0.00 0.00 0.00 66 998.6
20260505182922 87 180 4.0 6.0 0.00 0.00 0.00 65 999.0
20260505182421 86 180 3.0 5.0 0.00 0.00 0.00 65 999.0
20260505181921 86 203 4.0 5.0 0.00 0.00 0.00 64 999.0
20260505181421 87 225 5.0 7.0 0.00 0.00 0.00 62 998.6
20260505180922 87 248 2.0 3.0 0.00 0.00 0.00 65 999.0
20260505180422 87 248 2.0 2.0 0.00 0.00 0.00 65 999.3
20260505175921 85 180 4.0 5.0 0.00 0.00 0.00 67 999.0
20260505175422 84 203 3.0 3.0 0.00 0.00 0.00 68 999.3
20260505174922 84 203 2.0 4.0 0.00 0.00 0.00 69 999.3
20260505174424 83 180 4.0 7.0 0.00 0.00 0.00 71 999.0
20260505173923 82 225 4.0 5.0 0.00 0.00 0.00 71 999.0
20260505173422 82 225 5.0 7.0 0.00 0.00 0.00 71 999.0
20260505172921 82 180 4.0 6.0 0.00 0.00 0.00 70 999.0
20260505172421 82 203 6.0 7.0 0.00 0.00 0.00 71 998.6
20260505171922 82 225 5.0 7.0 0.00 0.00 0.00 71 998.6
20260505171421 82 203 5.0 7.0 0.00 0.00 0.00 70 998.6
20260505170923 82 203 3.0 5.0 0.00 0.00 0.00 72 999.0
20260505170422 81 203 9.0 15.0 0.00 0.00 0.00 73 998.6
20260505165922 81 248 6.0 12.0 0.00 0.00 0.00 73 998.6
20260505165421 81 203 5.0 7.0 0.00 0.00 0.00 74 998.6
20260505164922 80 180 5.0 10.0 0.00 0.00 0.00 75 998.6
20260505164422 80 203 7.0 10.0 0.00 0.00 0.00 74 998.6
20260505163922 80 225 2.0 4.0 0.00 0.00 0.00 75 998.6
20260505163422 80 248 7.0 10.0 0.00 0.00 0.00 74 998.6
20260505162921 80 248 4.0 5.0 0.00 0.00 0.00 75 998.6
20260505162423 81 248 6.0 9.0 0.00 0.00 0.00 74 998.6
20260505161921 80 225 7.0 11.0 0.00 0.00 0.00 73 998.6
20260505161422 80 225 6.0 9.0 0.00 0.00 0.00 75 998.6
20260505160922 80 203 5.0 6.0 0.00 0.00 0.00 74 998.6
20260505160422 80 180 6.0 7.0 0.00 0.00 0.00 76 998.6
20260505152922 79 248 4.0 8.0 0.00 0.00 0.00 79 998.6
20260505152423 78 180 7.0 8.0 0.00 0.00 0.00 78 998.6
20260505151921 77 248 8.0 11.0 0.00 0.00 0.00 80 998.6
20260505151421 77 203 4.0 8.0 0.00 0.00 0.00 81 998.6
20260505150924 77 203 7.0 9.0 0.00 0.00 0.00 81 998.6
20260505150422 77 248 3.0 5.0 0.00 0.00 0.00 81 998.6
20260505140422 73 225 5.0 10.0 0.00 0.00 0.00 87 998.0
20260505124922 70 248 3.0 4.0 0.00 0.00 0.00 92 998.0
20260505124422 70 203 1.0 2.0 0.00 0.00 0.00 93 998.0
20260505123922 69 180 6.0 7.0 0.00 0.00 0.00 93 998.0
20260505123421 69 225 4.0 7.0 0.00 0.00 0.00 94 997.6
20260505122922 69 248 3.0 4.0 0.00 0.00 0.00 94 997.6
20260505122423 68 248 2.0 3.0 0.00 0.00 0.00 94 997.6
20260505121921 68 203 3.0 5.0 0.00 0.00 0.00 95 997.6
20260505121422 68 270 5.0 7.0 0.00 0.00 0.00 95 997.6
20260505120923 68 203 3.0 5.0 0.00 0.00 0.00 95 997.6
20260505120423 68 225 3.0 5.0 0.00 0.00 0.00 95 997.6
20260505115921 68 225 7.0 12.0 0.00 0.00 0.00 95 997.3
20260505115422 68 203 4.0 5.0 0.00 0.00 0.00 95 997.3
20260505114921 68 270 3.0 4.0 0.00 0.00 0.00 95 997.3
20260505114422 68 225 2.0 2.0 0.00 0.00 0.00 95 997.6
20260505113923 68 203 2.0 3.0 0.00 0.00 0.00 95 997.6
20260505113422 68 180 7.0 9.0 0.00 0.00 0.00 96 997.6
20260505112922 67 203 3.0 5.0 0.00 0.00 0.00 96 997.3
20260505112422 67 180 5.0 6.0 0.00 0.00 0.00 96 997.0
20260505111921 67 248 3.0 5.0 0.00 0.00 0.00 95 997.3
20260505111422 67 180 4.0 5.0 0.00 0.00 0.00 95 997.0
20260505110921 67 270 5.0 7.0 0.00 0.00 0.00 95 997.3
20260505110422 67 248 5.0 7.0 0.00 0.00 0.00 95 997.3
20260505101921 68 203 6.0 8.0 0.00 0.00 0.00 94 997.3
20260505101422 68 270 4.0 6.0 0.00 0.00 0.00 94 997.0
20260505100922 68 203 5.0 7.0 0.00 0.00 0.00 94 997.0
20260505100421 68 203 7.0 10.0 0.00 0.00 0.00 94 997.3
20260505095922 68 225 5.0 7.0 0.00 0.00 0.00 94 997.3
20260505095424 68 203 3.0 5.0 0.00 0.00 0.00 94 997.3
20260505094922 68 248 4.0 5.0 0.00 0.00 0.00 93 997.3
20260505094421 69 225 6.0 11.0 0.00 0.00 0.00 93 997.3
20260505093921 69 203 4.0 8.0 0.00 0.00 0.00 93 997.6
20260505093421 69 225 3.0 6.0 0.00 0.00 0.00 93 997.6
20260505092922 69 225 7.0 12.0 0.00 0.00 0.00 93 997.6
20260505092422 69 248 5.0 7.0 0.00 0.00 0.00 93 997.6
20260505091922 69 248 3.0 5.0 0.00 0.00 0.00 93 997.3
20260505091422 69 203 4.0 6.0 0.00 0.00 0.00 92 997.6
20260505090921 69 180 8.0 10.0 0.00 0.00 0.00 92 997.6
20260505090421 69 203 7.0 12.0 0.00 0.00 0.00 92 997.6
20260505085921 69 203 8.0 10.0 0.00 0.00 0.00 92 998.0
20260505085422 69 203 6.0 7.0 0.00 0.00 0.00 92 998.0
20260505084922 69 225 9.0 13.0 0.00 0.00 0.00 92 997.6
20260505084421 69 203 8.0 12.0 0.00 0.00 0.00 92 997.3
20260505083923 69 203 6.0 10.0 0.00 0.00 0.00 92 998.0
20260505083421 69 248 3.0 5.0 0.00 0.00 0.00 92 997.6
20260505082921 69 203 5.0 6.0 0.00 0.00 0.00 92 998.0
20260505082421 69 203 5.0 12.0 0.00 0.00 0.00 91 997.6
20260505081921 69 225 7.0 10.0 0.00 0.00 0.00 91 997.6
20260505081421 69 225 5.0 7.0 0.00 0.00 0.00 91 997.6
20260505080921 69 248 4.0 7.0 0.00 0.00 0.00 91 998.0
20260505080421 69 180 5.0 10.0 0.00 0.00 0.00 91 998.0